[[{"header":{"parameterUnit":"m.s-1","parameterCategory":1,"la1":30.2991,"la2":30.254,"lo1":-89.0895,"lo2":-89.0444,"dy":0.0017,"dx":0.0017,"nx":28,"ny":28,"refTime":"2024-12-01T09:00:00:Z","depth":0,"parameterNumber":2,"parameterNumberName":"U-component_of_WINDS"},"data":[0,0,0,0,0,0,0,0,0,0,0,0,0,0,0,0,0,0,0,0,0,0,0,0,0,0,0,0,0,0,0,0,0,0,0,0,0,0,0,0,0,0,0,0,0,0,0,0,0,0,0,0,0,0,0,0,0,0,-2.4973,-2.4974,0,-2.5026,-2.5027,-2.5028,-2.4981,-2.498,-2.4978,-2.4976,-2.5029,-2.5032,-2.5035,0,0,0,0,0,0,0,0,0,0,0,0,0,-2.483,-2.4833,-2.4973,-2.4974,-2.4975,-2.5026,-2.5027,-2.5028,-2.4982,-2.4979,-2.4977,-2.4975,-2.5028,-2.5032,-2.5035,0,0,0,0,0,0,0,0,0,0,0,0,0,-2.4889,-2.4834,-2.4973,-2.4958,-2.4957,-2.5026,-2.5027,-2.5028,-2.4982,-2.4979,-2.4977,-2.4974,-2.5027,-2.5031,-2.5036,-2.5122,0,0,-2.5051,-2.5053,0,0,0,0,0,0,0,0,-2.4885,-2.4894,-2.4959,-2.4959,-2.4958,-2.4994,-2.4996,-2.506,-2.4983,-2.4973,-2.4976,-2.4972,-2.502,-2.5025,-2.5041,-2.5125,-2.5127,-2.5051,-2.5054,-2.5056,-2.5057,0,0,0,0,0,0,0,-2.4881,-2.4891,-2.4994,-2.496,-2.496,-2.4948,-2.4953,-2.5008,-2.5011,-2.4973,-2.497,-2.4977,-2.5019,-2.5036,-2.5042,-2.5128,-2.5051,-2.5055,-2.5058,-2.506,-2.5284,-2.5287,0,0,0,0,0,0,-2.4879,-2.4888,-2.4993,-2.4996,-2.4914,-2.4953,-2.4958,-2.4986,-2.5011,-2.5012,-2.4979,-2.4975,-2.503,-2.5036,-2.5044,-2.5145,-2.5056,-2.506,-2.5063,-2.5281,-2.5285,-2.5288,0,0,0,0,0,0,-2.4876,-2.4889,-2.499,-2.4941,-2.4953,-2.4958,-2.4989,-2.4988,-2.5006,-2.5015,-2.5016,-2.4997,-2.5028,-2.5037,-2.5103,-2.5147,-2.5062,-2.5067,-2.5278,-2.5282,-2.5287,-2.5351,0,0,0,0,0,0,-2.4872,-2.4888,-2.4921,-2.4942,-2.4956,-2.505,-2.4992,-2.4991,-2.5014,-2.5009,-2.5032,-2.5033,-2.5026,-2.5096,-2.5108,-2.5152,-2.5071,-2.5274,-2.528,-2.5285,-2.5345,-2.5357,-2.5367,0,0,0,0,0,-2.4867,-2.4937,-2.4923,-2.4936,-2.4998,-2.5052,-2.506,-2.5051,-2.5018,-2.5051,-2.5057,-2.5032,-2.514,-2.5103,-2.5116,-2.5162,-2.5271,-2.5278,-2.5285,-2.534,-2.5355,-2.5367,0,0,0,0,0,0,-2.4921,-2.494,-2.4925,-2.5004,-2.5027,-2.5044,-2.5086,-2.5068,-2.51,-2.5093,-2.5081,-2.5086,-2.5156,-2.5166,-2.5124,-2.5246,-2.52,-2.521,-2.5237,-2.5252,-2.5263,-2.5259,-2.5075,0,0,0,0,0,-2.4942,-2.4985,-2.4999,-2.5068,-2.508,-2.5081,-2.5105,-2.5096,-2.5119,-2.5128,-2.5139,-2.5162,-2.5201,-2.5227,-2.5264,-2.5346,-2.535,-2.5384,-2.5395,-2.5405,-2.5413,-2.5456,-2.5471,-2.5311,-2.5311,-2.5311,0,0,-2.4986,-2.5002,-2.503,-2.5079,-2.5096,-2.514,-2.509,-2.5139,-2.5171,-2.5136,-2.5199,-2.5208,-2.5232,-2.5307,-2.534,-2.5317,-2.5458,-2.5414,-2.5421,-2.5424,-2.5465,-2.548,-2.5493,-2.5316,-2.5315,-2.5314,0,0,-2.5089,-2.5106,-2.5164,-2.5182,-2.5208,-2.5208,-2.5222,-2.5243,-2.5247,-2.531,-2.5284,-2.5322,-2.539,-2.5409,-2.5427,-2.5536,-2.5514,-2.5548,-2.5607,-2.565,-2.5662,-2.5673,-2.5711,-2.5725,-2.5557,-2.5557,-2.5557,0,-2.514,-2.5206,-2.5196,-2.5247,-2.5268,-2.5239,-2.5297,-2.5315,-2.5352,-2.5367,-2.5341,-2.5425,-2.544,-2.5517,-2.5544,-2.556,-2.5575,-2.5545,-2.5661,-2.5672,-2.5682,-2.5718,-2.5733,-2.5561,-2.556,-2.556,-2.556,0,-2.5267,-2.5313,-2.5357,-2.5393,-2.542,-2.5475,-2.5472,-2.55,-2.5489,-2.5492,-2.5556,-2.5573,-2.5611,-2.5629,-2.5619,-2.5705,-2.569,-2.5663,-2.5616,-2.5702,-2.5735,-2.5749,-2.5567,-2.5565,-2.5564,-2.5563,0,0,-2.5404,-2.5434,-2.5451,-2.5466,-2.5493,-2.5528,-2.5581,-2.5619,-2.5643,-2.5669,-2.5712,-2.577,-2.5745,-2.5766,-2.5757,-2.5795,-2.5878,-2.5762,-2.5763,-2.5782,-2.5973,-2.5993,-2.6009,-2.5864,-2.5867,-2.5869,-2.5971,0,-2.5507,-2.5599,-2.5591,-2.5678,-2.5719,-2.5692,-2.5737,-2.5758,-2.5762,-2.5798,-2.5802,-2.5843,-2.5807,-2.5819,-2.5855,-2.5861,-2.5916,-2.5853,-2.5903,-2.5905,-2.5896,-2.6026,-2.6047,-2.6143,-2.5984,-2.5986,-2.5988,0,-2.5639,-2.567,-2.5761,-2.578,-2.5797,-2.5839,-2.5873,-2.5907,-2.593,-2.593,-2.5954,-2.5938,-2.599,-2.5943,-2.6014,-2.5971,-2.5991,-2.5997,-2.6001,-2.6004,-2.5951,-2.6032,-2.6173,-2.6187,-2.6008,-2.6007,-2.6005,0,-2.5729,-2.5793,-2.5855,-2.587,-2.5895,-2.5924,-2.5936,-2.5956,-2.5979,-2.6008,-2.6023,-2.6059,-2.6078,-2.6105,-2.6099,-2.6066,-2.6171,-2.6124,-2.6172,-2.6172,-2.6195,-2.6193,-2.634,-2.621,-2.621,-2.6209,-2.6209,0,-2.5843,-2.59,-2.5896,-2.5934,-2.5996,-2.5986,-2.6048,-2.6056,-2.6074,-2.6112,-2.6091,-2.6128,-2.6119,-2.6155,-2.6151,-2.621,-2.6219,-2.6219,-2.6218,-2.6221,-2.6221,-2.6233,-2.6226,-2.6213,-2.6212,-2.6212,-2.6211,0,-2.5954,-2.5954,-2.602,-2.6037,-2.6043,-2.6088,-2.6103,-2.6139,-2.6141,-2.619,-2.6201,-2.6204,-2.6246,-2.6243,-2.629,-2.6287,-2.6359,-2.635,-2.6352,-2.6349,-2.6397,-2.6392,-2.6555,-2.6576,-2.6434,-2.6435,-2.6437,0,-2.6026,-2.6069,-2.6091,-2.6116,-2.6129,-2.6169,-2.6193,-2.6185,-2.621,-2.6239,-2.6271,-2.631,-2.6341,-2.6409,-2.6415,-2.645,-2.6441,-2.6496,-2.6446,-2.6448,-2.644,-2.6437,-2.6441,-2.6505,-2.6507,-2.6508,-2.6509,0,-2.6155,-2.6153,-2.6188,-2.6223,-2.6251,-2.6278,-2.6303,-2.6324,-2.6318,-2.6348,-2.639,-2.6414,-2.6462,-2.6501,-2.6534,-2.6545,-2.6526,-2.6525,-2.6538,-2.6541,-2.6539,-2.654,-2.6377,-2.6521,-2.652,-2.6519,-2.6518,-2.6518,-2.6248,-2.6284,-2.6305,-2.6345,-2.6362,-2.6386,-2.642,-2.6426,-2.6461,-2.6499,-2.6493,-2.654,-2.656,-2.6604,-2.6618,-2.6654,-2.6634,-2.6653,-2.6658,-2.6662,-2.6667,-2.6535,-2.666,-2.666,-2.666,-2.6659,-2.6659,0,-2.6374,-2.6386,-2.6423,-2.6458,-2.6489,-2.6468,-2.6494,-2.6521,-2.6563,-2.6584,-2.6615,-2.6663,-2.6701,-2.671,-2.6746,-2.6773,-2.6765,-2.6782,-2.678,-2.6782,-2.6683,-2.6668,-2.6788,-2.6788,-2.6788,-2.6788,-2.6788,-2.6788,-2.6444,-2.6503,-2.6503,-2.6571,-2.6583,-2.6629,-2.6645,-2.6666,-2.6683,-2.6738,-2.6769,-2.6775,-2.6791,-2.6828,-2.6861,-2.6863,-2.6876,-2.6897,-2.6895,-2.6802,-2.6789,-2.6777,-2.6763,-2.6901,-2.6901,-2.6991,-2.6992,-2.6993]},{"header":{"parameterUnit":"m.s-1","parameterCategory":1,"la1":30.2991,"la2":30.254,"lo1":-89.0895,"lo2":-89.0444,"dy":0.0017,"dx":0.0017,"nx":28,"ny":28,"refTime":"2024-12-01T09:00:00:Z","depth":0,"parameterNumber":3,"parameterNumberName":"V-component_of_WINDS"},"data":[0,0,0,0,0,0,0,0,0,0,0,0,0,0,0,0,0,0,0,0,0,0,0,0,0,0,0,0,0,0,0,0,0,0,0,0,0,0,0,0,0,0,0,0,0,0,0,0,0,0,0,0,0,0,0,0,0,0,-1.5195,-1.5196,0,-1.5257,-1.5258,-1.5258,-1.5276,-1.5276,-1.5276,-1.5275,-1.5339,-1.5341,-1.5343,0,0,0,0,0,0,0,0,0,0,0,0,0,-1.5092,-1.5093,-1.5195,-1.5196,-1.5196,-1.5257,-1.5258,-1.5259,-1.5276,-1.5276,-1.5275,-1.5275,-1.5339,-1.5341,-1.5343,0,0,0,0,0,0,0,0,0,0,0,0,0,-1.5143,-1.5094,-1.5195,-1.5213,-1.5215,-1.5257,-1.5258,-1.5259,-1.5276,-1.5276,-1.5275,-1.5275,-1.5338,-1.5341,-1.5344,-1.5372,0,0,-1.5353,-1.5354,0,0,0,0,0,0,0,0,-1.514,-1.5147,-1.5209,-1.5211,-1.5214,-1.5258,-1.5245,-1.5297,-1.5277,-1.5253,-1.5275,-1.5275,-1.5313,-1.5318,-1.5331,-1.5375,-1.5378,-1.5353,-1.5355,-1.5356,-1.5357,0,0,0,0,0,0,0,-1.5137,-1.5145,-1.5219,-1.521,-1.5213,-1.5217,-1.5224,-1.5255,-1.5285,-1.5255,-1.5256,-1.5264,-1.5314,-1.5328,-1.5332,-1.5379,-1.5353,-1.5356,-1.5358,-1.5359,-1.545,-1.5451,0,0,0,0,0,0,-1.513,-1.5141,-1.5217,-1.5221,-1.5175,-1.522,-1.5227,-1.5245,-1.5285,-1.529,-1.5264,-1.5264,-1.5323,-1.5329,-1.5334,-1.537,-1.5356,-1.5359,-1.5361,-1.5449,-1.545,-1.5451,0,0,0,0,0,0,-1.5128,-1.5137,-1.5215,-1.5182,-1.5192,-1.5222,-1.5241,-1.5246,-1.526,-1.5291,-1.5297,-1.5272,-1.5322,-1.533,-1.5363,-1.5373,-1.536,-1.5363,-1.5449,-1.545,-1.5451,-1.5442,0,0,0,0,0,0,-1.5125,-1.5136,-1.5147,-1.5182,-1.5194,-1.5242,-1.5242,-1.5248,-1.5265,-1.5266,-1.5301,-1.5306,-1.5323,-1.5358,-1.5366,-1.5377,-1.5366,-1.5448,-1.5449,-1.545,-1.5442,-1.5443,-1.5444,0,0,0,0,0,-1.5121,-1.5142,-1.5148,-1.5157,-1.5208,-1.5243,-1.5249,-1.5268,-1.5266,-1.5277,-1.5297,-1.5305,-1.537,-1.5361,-1.537,-1.5382,-1.5447,-1.5449,-1.545,-1.5441,-1.5442,-1.5444,0,0,0,0,0,0,-1.5108,-1.5147,-1.5153,-1.5187,-1.5211,-1.5245,-1.5261,-1.5269,-1.5295,-1.5294,-1.5317,-1.5324,-1.5355,-1.5372,-1.5361,-1.5412,-1.5409,-1.5412,-1.5399,-1.5401,-1.5402,-1.5397,-1.5368,0,0,0,0,0,-1.5109,-1.5134,-1.5167,-1.5193,-1.5205,-1.523,-1.5246,-1.5258,-1.5285,-1.5295,-1.5318,-1.5343,-1.5369,-1.5386,-1.5412,-1.5444,-1.5452,-1.5457,-1.5458,-1.5458,-1.5461,-1.5479,-1.5481,-1.5455,-1.5455,-1.5455,0,0,-1.5112,-1.5136,-1.515,-1.5191,-1.5211,-1.5236,-1.5239,-1.5265,-1.5284,-1.5299,-1.5331,-1.5348,-1.5378,-1.541,-1.5426,-1.5425,-1.547,-1.546,-1.546,-1.5463,-1.548,-1.5483,-1.5485,-1.5456,-1.5456,-1.5456,0,0,-1.5128,-1.515,-1.5173,-1.5194,-1.5224,-1.5241,-1.5247,-1.528,-1.5292,-1.5324,-1.5336,-1.5359,-1.5404,-1.5424,-1.544,-1.5464,-1.5472,-1.5472,-1.5477,-1.5494,-1.5496,-1.5498,-1.5506,-1.5509,-1.5475,-1.5475,-1.5475,0,-1.5127,-1.5165,-1.5185,-1.521,-1.5227,-1.5242,-1.5266,-1.5285,-1.5323,-1.5334,-1.5333,-1.539,-1.5411,-1.5448,-1.5453,-1.5466,-1.5473,-1.5468,-1.5494,-1.5496,-1.5498,-1.5506,-1.5509,-1.5474,-1.5475,-1.5475,-1.5475,0,-1.5162,-1.5188,-1.5203,-1.5239,-1.5258,-1.5283,-1.5306,-1.5323,-1.5334,-1.535,-1.5383,-1.5409,-1.544,-1.545,-1.5461,-1.5488,-1.5487,-1.549,-1.5488,-1.55,-1.5508,-1.5511,-1.5474,-1.5474,-1.5474,-1.5474,0,0,-1.5172,-1.5218,-1.5223,-1.5239,-1.5274,-1.5295,-1.532,-1.535,-1.5364,-1.539,-1.5411,-1.5448,-1.5451,-1.547,-1.5483,-1.5498,-1.5515,-1.5499,-1.55,-1.5501,-1.5546,-1.5543,-1.5547,-1.552,-1.5521,-1.5521,-1.5544,0,-1.5193,-1.5238,-1.5256,-1.5293,-1.5317,-1.5331,-1.5353,-1.5377,-1.5393,-1.5416,-1.5435,-1.546,-1.5463,-1.5474,-1.5489,-1.5509,-1.5524,-1.5508,-1.554,-1.5541,-1.5532,-1.5551,-1.5548,-1.5567,-1.5547,-1.5547,-1.5548,0,-1.5223,-1.5248,-1.5287,-1.5319,-1.5329,-1.5349,-1.5377,-1.5399,-1.5426,-1.5437,-1.5457,-1.547,-1.5497,-1.5493,-1.553,-1.5519,-1.5533,-1.5545,-1.5546,-1.5549,-1.5545,-1.5554,-1.5574,-1.5577,-1.5553,-1.5552,-1.5552,0,-1.5226,-1.527,-1.5298,-1.5312,-1.5349,-1.5362,-1.5379,-1.5405,-1.5422,-1.5448,-1.5459,-1.5487,-1.5502,-1.5524,-1.5544,-1.5539,-1.5579,-1.5577,-1.5588,-1.5588,-1.5596,-1.5595,-1.5618,-1.5606,-1.5606,-1.5606,-1.5606,0,-1.5247,-1.527,-1.53,-1.5318,-1.5344,-1.5365,-1.539,-1.5407,-1.5431,-1.5452,-1.5467,-1.5486,-1.5511,-1.5534,-1.5549,-1.5577,-1.5584,-1.5594,-1.5598,-1.5592,-1.5591,-1.5602,-1.5601,-1.5606,-1.5606,-1.5606,-1.5606,0,-1.5254,-1.5275,-1.5307,-1.534,-1.5349,-1.5367,-1.5395,-1.5412,-1.543,-1.5456,-1.5464,-1.5491,-1.5518,-1.554,-1.5576,-1.5587,-1.5616,-1.562,-1.5607,-1.5608,-1.5618,-1.5617,-1.5649,-1.5654,-1.5638,-1.5639,-1.5639,0,-1.5265,-1.5283,-1.5318,-1.5333,-1.5349,-1.5373,-1.539,-1.5412,-1.5429,-1.5461,-1.5474,-1.5503,-1.5527,-1.557,-1.5593,-1.5621,-1.5626,-1.5635,-1.563,-1.5624,-1.5625,-1.5624,-1.5625,-1.5635,-1.5635,-1.5635,-1.5635,0,-1.5283,-1.5293,-1.5317,-1.5345,-1.5365,-1.5388,-1.5411,-1.5422,-1.5448,-1.5466,-1.5494,-1.5513,-1.555,-1.5578,-1.5608,-1.5624,-1.5634,-1.5637,-1.5641,-1.5635,-1.5626,-1.5631,-1.5608,-1.5636,-1.5636,-1.5636,-1.5636,-1.5636,-1.5293,-1.5309,-1.5336,-1.5362,-1.5382,-1.5403,-1.5421,-1.544,-1.5464,-1.5495,-1.5506,-1.5535,-1.5562,-1.5603,-1.562,-1.5643,-1.5643,-1.5649,-1.5651,-1.5652,-1.5651,-1.5623,-1.5648,-1.5648,-1.5648,-1.5649,-1.5649,0,-1.5311,-1.5329,-1.5353,-1.5385,-1.5405,-1.5412,-1.5438,-1.5455,-1.548,-1.5504,-1.5527,-1.5559,-1.5586,-1.5611,-1.564,-1.5653,-1.5658,-1.566,-1.5659,-1.5663,-1.5649,-1.5642,-1.5655,-1.5655,-1.5655,-1.5655,-1.5655,-1.5655,-1.5323,-1.5351,-1.5364,-1.5401,-1.5419,-1.5447,-1.5461,-1.5481,-1.55,-1.5535,-1.5558,-1.5574,-1.5598,-1.5628,-1.5653,-1.566,-1.567,-1.567,-1.5678,-1.5665,-1.5664,-1.5663,-1.5656,-1.5672,-1.5672,-1.5689,-1.569,-1.569]}]]